TimeEDT,TemperatureF,Dew PointF,Humidity,Sea Level PressureIn,VisibilityMPH,Wind Direction,Wind SpeedMPH,Gust SpeedMPH,PrecipitationIn,Events,Conditions,WindDirDegrees,DateUTC
12:54 AM,25.0,19.0,78,29.81,10.0,Calm,Calm,-,N/A,,Overcast,0,2013-03-25 04:54:00
1:54 AM,25.0,19.0,78,29.79,10.0,Calm,Calm,-,N/A,,Clear,0,2013-03-25 05:54:00
2:54 AM,23.0,18.0,81,29.78,9.0,Calm,Calm,-,N/A,,Clear,0,2013-03-25 06:54:00
3:54 AM,23.0,18.0,81,29.78,10.0,Calm,Calm,-,N/A,,Clear,0,2013-03-25 07:54:00
4:54 AM,21.9,18.0,85,29.76,10.0,Calm,Calm,-,N/A,,Mostly Cloudy,0,2013-03-25 08:54:00
5:54 AM,23.0,18.0,81,29.76,10.0,Calm,Calm,-,N/A,,Overcast,0,2013-03-25 09:54:00
6:54 AM,21.9,18.0,85,29.75,10.0,Calm,Calm,-,N/A,,Clear,0,2013-03-25 10:54:00
7:54 AM,23.0,19.0,85,29.76,9.0,Calm,Calm,-,N/A,,Clear,0,2013-03-25 11:54:00
8:54 AM,27.0,21.0,78,29.76,10.0,Calm,Calm,-,N/A,,Overcast,0,2013-03-25 12:54:00
9:54 AM,32.0,21.0,64,29.73,10.0,Calm,Calm,-,N/A,,Mostly Cloudy,0,2013-03-25 13:54:00
10:54 AM,37.0,23.0,57,29.71,10.0,Calm,Calm,-,N/A,,Overcast,0,2013-03-25 14:54:00
11:54 AM,37.9,23.0,55,29.69,10.0,ENE,6.9,-,N/A,,Scattered Clouds,60,2013-03-25 15:54:00
12:54 PM,39.0,24.1,55,29.66,10.0,ESE,5.8,-,N/A,,Mostly Cloudy,110,2013-03-25 16:54:00
1:54 PM,41.0,21.0,45,29.64,10.0,NE,4.6,-,N/A,,Overcast,40,2013-03-25 17:54:00
2:54 PM,39.9,19.9,45,29.61,10.0,NE,9.2,-,N/A,,Overcast,50,2013-03-25 18:54:00
3:54 PM,39.9,21.0,47,29.58,10.0,ENE,8.1,16.1,N/A,,Overcast,60,2013-03-25 19:54:00
4:54 PM,41.0,19.9,43,29.56,10.0,NE,6.9,-,N/A,,Overcast,50,2013-03-25 20:54:00
5:54 PM,39.9,19.0,43,29.58,10.0,ENE,10.4,17.3,N/A,,Mostly Cloudy,60,2013-03-25 21:54:00
6:54 PM,39.0,19.9,46,29.60,10.0,East,5.8,-,N/A,,Overcast,90,2013-03-25 22:54:00
7:54 PM,37.9,19.9,48,29.60,10.0,Calm,Calm,-,N/A,,Overcast,0,2013-03-25 23:54:00
8:54 PM,37.0,21.9,54,29.62,10.0,Calm,Calm,-,N/A,,Overcast,0,2013-03-26 00:54:00
9:54 PM,34.0,24.1,67,29.62,10.0,Calm,Calm,-,N/A,,Overcast,0,2013-03-26 01:54:00
10:54 PM,33.1,24.1,70,29.61,10.0,Calm,Calm,-,N/A,,Overcast,0,2013-03-26 02:54:00
11:54 PM,32.0,23.0,69,29.61,10.0,Calm,Calm,-,N/A,,Overcast,0,2013-03-26 03:54:00